Weather History for Miami, FL

Change the Weather History Date:

Tuesday, January 29, 2013

  Actual Average Record
Temperature  
Mean Temperature 76 °F 69 °F  
Max Temperature 81 °F 77 °F 84 °F (1949)
Min Temperature 71 °F 61 °F 29 °F (1940)
Degree Days  
Heating Degree Days 0 1  
Month to date heating degree days 4 54  
Since 1 July heating degree days 20 91  
Cooling Degree Days 11 5  
Month to date cooling degree days 253 145  
Year to date cooling degree days 253 145  
Growing Degree Days 26 (Base 50)    
Moisture  
Dew Point 66 °F    
Average Humidity 73    
Maximum Humidity 84    
Minimum Humidity 62    
Precipitation  
Precipitation 0.00 in 0.06 in 0.93 in (1996)
Month to date precipitation 0.54 1.51  
Year to date precipitation 0.54 1.51  
Snow  
Snow 0.00 in - - ()
Month to date snowfall 0.0  
Since 1 July snowfall 0.0  
Snow Depth 0.00 in    
Sea Level Pressure  
Sea Level Pressure 30.19 in    
Wind  
Wind Speed 12 mph (ESE)    
Max Wind Speed 20 mph    
Max Gust Speed 28 mph    
Visibility 10 miles    
Events      
T = Trace of Precipitation, MM = Missing Value Source: NWS Daily Summary

Daily Weather History Graph

Daily Weather History Graph

Search for Another Location

Airport:

Trip Planner

Search our weather history database for the weather conditions in past years. The results will help you decide how hot, cold, wet, or windy it might be!

Date:

Astronomy

Jan. 29, 2013 Rise Set
Actual Time 7:06 AM EST 6:03 PM EST
Civil Twilight 6:42 AM EST 6:27 PM EST
Nautical Twilight 6:14 AM EST 6:54 PM EST
Astronomical Twilight 5:47 AM EST 7:22 PM EST
Moon 8:34 PM EST (1/29) 8:22 AM EST (1/29)
Length of Visible Light 11h 45m
Length of Day
10h 56m
Waning Gibbous, 94% of the Moon is Illuminated
Jan 29
Waning Gibbous
Feb 3
Last Quarter
Feb 10
New
Feb 17
First Quarter
Feb 25
Full

Hourly Weather History & Observations

Time (EST) Temp. Heat Index Dew Point Humidity Pressure Visibility Wind Dir Wind Speed Gust Speed Precip Events Conditions
12:53 AM 73.0 °F - 66.0 °F 79% 30.24 in 10.0 mi East 9.2 mph - N/A   Scattered Clouds
1:53 AM 73.0 °F - 66.0 °F 79% 30.22 in 10.0 mi East 9.2 mph - N/A   Scattered Clouds
2:53 AM 73.0 °F - 64.9 °F 76% 30.21 in 10.0 mi East 9.2 mph - N/A   Partly Cloudy
3:53 AM 72.0 °F - 64.9 °F 78% 30.20 in 10.0 mi ESE 9.2 mph - N/A   Clear
4:53 AM 72.0 °F - 66.0 °F 81% 30.19 in 10.0 mi East 6.9 mph - N/A   Clear
5:53 AM 72.0 °F - 66.0 °F 81% 30.20 in 10.0 mi ESE 8.1 mph - N/A   Clear
6:53 AM 72.0 °F - 66.9 °F 84% 30.22 in 10.0 mi ESE 6.9 mph - N/A   Partly Cloudy
7:53 AM 73.9 °F - 66.9 °F 79% 30.23 in 10.0 mi ESE 8.1 mph - N/A   Scattered Clouds
8:53 AM 75.9 °F - 68.0 °F 76% 30.23 in 10.0 mi ESE 15.0 mph - N/A   Scattered Clouds
9:53 AM 78.1 °F - 66.9 °F 68% 30.24 in 10.0 mi SE 15.0 mph 23.0 mph N/A   Mostly Cloudy
10:02 AM 77.0 °F - 66.2 °F 69% 30.24 in 10.0 mi ESE 16.1 mph - N/A   Mostly Cloudy
10:53 AM 79.0 °F - 68.0 °F 69% 30.24 in 10.0 mi ESE 13.8 mph 24.2 mph N/A   Mostly Cloudy
11:53 AM 80.1 °F 82.7 °F 68.0 °F 67% 30.22 in 10.0 mi SE 13.8 mph 23.0 mph N/A   Mostly Cloudy
12:53 PM 80.1 °F 82.3 °F 66.9 °F 64% 30.19 in 10.0 mi SE 17.3 mph 23.0 mph N/A   Mostly Cloudy
1:53 PM 80.1 °F 82.1 °F 66.0 °F 62% 30.17 in 10.0 mi SE 15.0 mph 24.2 mph N/A   Mostly Cloudy
2:48 PM 80.6 °F 82.7 °F 66.2 °F 61% 30.15 in 10.0 mi SE 16.1 mph 27.6 mph N/A   Mostly Cloudy
2:53 PM 80.1 °F 82.1 °F 66.0 °F 62% 30.15 in 10.0 mi SE 17.3 mph 27.6 mph N/A   Mostly Cloudy
3:50 PM 80.6 °F 82.7 °F 66.2 °F 61% 30.14 in 10.0 mi ESE 17.3 mph 23.0 mph N/A   Mostly Cloudy
3:53 PM 80.1 °F 82.1 °F 66.0 °F 62% 30.14 in 10.0 mi ESE 13.8 mph 23.0 mph N/A   Mostly Cloudy
4:03 PM 78.8 °F - 66.2 °F 65% 30.14 in 10.0 mi ESE 13.8 mph 23.0 mph N/A   Scattered Clouds
4:53 PM 77.0 °F - 64.9 °F 66% 30.15 in 10.0 mi ESE 13.8 mph - N/A   Scattered Clouds
5:53 PM 75.0 °F - 64.9 °F 71% 30.16 in 10.0 mi ESE 9.2 mph - N/A   Scattered Clouds
6:53 PM 73.9 °F - 66.0 °F 76% 30.17 in 10.0 mi ESE 11.5 mph - N/A   Scattered Clouds
7:53 PM 73.9 °F - 66.0 °F 76% 30.17 in 10.0 mi ESE 10.4 mph - N/A   Scattered Clouds
8:53 PM 73.9 °F - 63.0 °F 68% 30.17 in 10.0 mi East 11.5 mph - N/A   Scattered Clouds
9:53 PM 73.0 °F - 64.0 °F 73% 30.16 in 10.0 mi East 10.4 mph - N/A   Scattered Clouds
10:53 PM 73.0 °F - 63.0 °F 71% 30.16 in 10.0 mi ESE 10.4 mph - N/A   Scattered Clouds
11:53 PM 73.0 °F - 63.0 °F 71% 30.14 in 10.0 mi ESE 11.5 mph - N/A   Scattered Clouds